FLOCK 3P-42

Last updated on Wed Feb 14 2018 16:20:31 GMT+0000 (Greenwich Mean Time)

1 42008U 17008BN 18044.94710467 .00001219 00000-0 53426-4 0 9992 2 42008 97.4659 110.5420 0009656 87.8522 272.3821 15.23901078 55266
UTC large
Height (km)
Speed (km/s)
/
Latitude / Longitude
Inclination (degrees)
Orbital Period (minutes)
Azimuth
Elevation
Range (km)
Doppler Factor

Next 0 passes for location: London (51.5072 / 0.1276)

Sorry there are no passes over London.